Regional Weather Roundup
Issued by NWS Charleston, SC

Current Version | Previous Version | Graphics & Text | Print | Product List | Glossary On
Versions: 1 2 3 4 5 6 7 8 9 10 11 12 13 14 15 16 17 18 19 20 21 22 23 24 25 26 27 28 29 30 31 32 33 34 35 36 37 38 39 40 41 42 43 44 45 46 47 48 49 50
648
ASUS42 KCHS 281727
RWRCHS

REGIONAL WEATHER ROUNDUP
NATIONAL WEATHER SERVICE CHARLESTON SC
100 PM EDT WED JUN 28 2017

NOTE: "FAIR" INDICATES FEW OR NO CLOUDS BELOW 12,000 FEET WITH NO
SIGNIFICANT WEATHER AND/OR OBSTRUCTIONS TO VISIBILITY.

NOT ALL STATIONS ARE QUALITY CONTROLLED. USE DATA WITH CAUTION...
ESPECIALLY DEWPOINT OBSERVATIONS.

SCZ027-030-031-034>040-042>050-281800-
...SOUTHEAST SOUTH CAROLINA...

CITY           SKY/WX    TMP DP  RH WIND       PRES   REMARKS
N CHARLESTON   PTSUNNY   85  64  49 E14G22    30.17R
WATERFRONT PRK   N/A     82  69  64 E12G18    30.15R
JOHNS ISLAND   FAIR      84  68  58 NE14      30.17S
PINOPOLIS        N/A     81  64  57 E9        30.12R
MONCKS CORNER  FAIR      82  57  42 E7        30.18F
SUMMERVILLE    FAIR      82  63  51 NE5       30.18F
BEAUFORT MCAS  PTSUNNY   83  70  64 E15       30.16R
BEAUFORT ARPT  FAIR      81  68  65 E14G20    30.16R
HILTON HEAD IS MOSUNNY   82  70  65 NE12      30.17R
WALTERBORO     MOSUNNY   82  64  54 E8        30.18F
ALLENDALE      FAIR      82  63  51 VRB7      30.17S

...SOUTHERN MIDLANDS AND PEE DEE...

CITY           SKY/WX    TMP DP  RH WIND       PRES   REMARKS
GEORGETOWN     FAIR      81  63  54 E7        30.20S
KINGSTREE      FAIR      82  54  36 E7        30.18F
ORANGEBURG     SUNNY     83  53  35 VRB7      30.19S
BARNWELL       CLOUDY    84  64  51 E10       30.18S
AIKEN          FAIR      82  57  42 E8        30.21F
MANNING        FAIR      84  61  45 SE15G21   30.18F
COLUMBIA       MOSUNNY   84  54  35 SE9       30.17F
SUMTER         SUNNY     84  52  33 E8        30.16F
FLORENCE       SUNNY     83  51  33 E9        30.20S
MYRTLE BEACH   SUNNY     81  61  50 E16       30.20R
N MYRTLE BEACH SUNNY     83  59  44 E9        30.18S

$$

GAZ063-065-086>088-099>101-113>116-118-119-134>141-150-281800-
...SOUTHEAST GEORGIA...

CITY           SKY/WX    TMP DP  RH WIND       PRES   REMARKS
SAVANNAH ARPT  CLOUDY    85  66  53 NE12      30.16R
HUNTER AAF     CLOUDY    84  69  58 E7G20     30.13R
FORT STEWART   CLOUDY    85  67  56 E12       30.13R
STATESBORO     CLOUDY    84  68  58 E3        30.16S
SYLVANIA       PTSUNNY   85  70  60 E6        30.18S HX  90
CLAXTON        FAIR      83  64  51 E10G16    30.16S

...CSRA...CENTRAL AND FAR SOUTHEAST GEORGIA...

CITY           SKY/WX    TMP DP  RH WIND       PRES   REMARKS
THOMSON        MOSUNNY   84  62  48 S5        30.21F
AUGUSTA-BUSH   MOSUNNY   88  64  44 SE12      30.15F
AUGUSTA-DANIEL PTSUNNY   86  57  37 VRB6      30.17F
SWAINSBORO     FAIR      84  68  58 E8        30.17S
VIDALIA        CLOUDY    82  68  61 E13       30.16S
EASTMAN        PTSUNNY   86  54  32 E12       30.18R
HAZLEHURST     PTSUNNY   85  71  63 E7        30.14R
ALMA           PTSUNNY   84  69  60 E7        30.13R
WAYCROSS       CLOUDY    87  76  70 SE10      30.12S HX  97
JESUP          PTSUNNY   86  68  54 E9        30.14S
BAXLEY         FAIR      86  75  70 E12       30.13F HX  95
BRUNSWICK      CLOUDY    82  72  69 E16       30.14S
SAINT SIMONS   CLOUDY    84  72  67 E14       30.13R

$$

SCZ027-028-034-036>038-045-046-048>050-GAZ119-141-281800-
...LAKE AND SUPPLEMENTAL COASTAL OBSERVATIONS...

STATION/POSITION TIME  TEMP    WIND        PRES    WAVE   SWELL
                       AIR SEA DIR/SP/G            HT/PER HT/PER/DIR
                 (UTC) (F)     (DEG/KT/KT) (MB)    (FT/S) (FT/S/D)
WINYAH BAY       1645   78      70/ 12     1022.0S
LAKE MURRAY      1630   81      90/  7/  9 1021.0F
ACE BASIN NERRS  1645   84      80/  5     1022.0R
FORT PULASKI     1700   81 83   80/ 15/ 17 1021.5
SAPELO ISLAND    1700   83      70/ 11     1021.0

$$

ANZ835-935-AMZ111-154-330-350-352-354-370-450-454-472-281800-
...C-MAN AND BUOY OBSERVATIONS...

STATION/POSITION TIME  TEMP    WIND        PRES    WAVE   SWELL
                       AIR SEA DIR/SP/G            HT/PER HT/PER/DIR
                 (UTC) (F)     (DEG/KT/KT) (MB)    (FT/S) (FT/S/D)
BUOY 41004       1710   80 80   60/ 16/ 19 1020.8
BUOY 41008       1650   80 82   70/ 14/ 16 1020.0R   3/ 4   2/150/ 7
FOLLY BEACH CMAN 1700   81      70/ 17/ 19 1022.4R
CAPERS NEARSHORE 1608   85 83   70/ 16/ 21 1021.0R
FRIPP NEARSHORE  1708   81 83   80/ 16/ 21 1020.7R


STATION/POSITION TIME  TEMP    WIND        PRES    WAVE   SWELL
                       AIR SEA DIR/SP/G            HT/PER HT/PER/DIR
                 (UTC) (F)     (DEG/KT/KT) (MB)    (FT/S) (FT/S/D)
5E ST. MARYS GA  1700      80                N/A     3/ 4
FRYING PAN BUOY  1710   78 80   50/ 12/ 14 1021.5
BUOY 41025       1650   76 81   20/ 12/ 14 1021.8R   2/ 6   2/ 70/ 6
CAPE LOOKOUT NC  1700   78      60/ 10/ 12 1021.9R
BUOY 41002       1650   80 81   50/ 14/ 17 1019.1R   3/ 7   2/160/ 7
BUOY 41010       1710   80 83   50/ 12/ 14 1018.0
ST AUGUSTINE FL  1700   79 80   70/ 11/ 12 1019.5F


$$




USA.gov is the U.S. government's official web portal to all federal, state and local government web resources and services.